Location: Cedar Brake
(32.2526°N, 97.8459°W)
Time: 20:59:41
(UTC+00:00)

Cosmos 2369 Rocket - Pass Details

Date: 22 April 2026
Orbit: 829 x 850 km, 71.0° (Epoch: 21 May)

Event Time Altitude Azimuth Distance (km) Brightness Sun altitude
Rises 04:54:13 0° 325° (NW) 3,372 6.2 -40.0°
Reaches altitude 10° 04:57:00 10° 313° (NW) 2,436 5.2 -40.3°
Enters shadow 04:58:49 18° 299° (WNW) 1,928 4.5 -40.5°
